Weather History for KGGW - March, 2014

Change the Weather History Date:

Tuesday, March 18, 2014

  Actual Average Record
Temperature  
Mean Temperature 38 °F 33 °F  
Max Temperature 48 °F 43 °F 68 °F (1972)
Min Temperature 27 °F 22 °F -16 °F (1965)
Degree Days  
Heating Degree Days 27 32  
Month to date heating degree days 681 657  
Since 1 July heating degree days 7329 7027  
Cooling Degree Days 0 0  
Month to date cooling degree days 0 0  
Year to date cooling degree days 0 0  
Moisture  
Dew Point 28 °F    
Average Humidity 67    
Maximum Humidity 100    
Minimum Humidity 34    
Precipitation  
Precipitation 0.02 in 0.01 in 0.45 in (1913)
Month to date precipitation 0.36 0.21  
Year to date precipitation 0.71 0.84  
Snow  
Snow T in 0.20 in 6.00 in (1913)
Month to date snowfall 3.0 3.0  
Since 1 July snowfall 26.8 30.0  
Snow Depth 0.00 in    
Sea Level Pressure  
Sea Level Pressure 30.00 in    
Wind  
Wind Speed 8 mph (WNW)    
Max Wind Speed 21 mph    
Max Gust Speed 24 mph    
Visibility 10 miles    
Events Rain , Snow    
T = Trace of Precipitation, MM = Missing Value Source: NWS Daily Summary

Daily Weather History Graph

Daily Weather History Graph

Search for Another Location

Airport or City:

Trip Planner

Search our weather history database for the weather conditions in past years. The results will help you decide how hot, cold, wet, or windy it might be!

Date:

Astronomy

Mar. 18, 2014 Rise Set
Actual Time 7:13 AM MDT 7:16 PM MDT
Civil Twilight 6:42 AM MDT 7:47 PM MDT
Nautical Twilight 6:05 AM MDT 8:24 PM MDT
Astronomical Twilight 5:28 AM MDT 9:01 PM MDT
Moon 9:49 PM MDT (3/18) 7:54 AM MDT (3/18)
Length of Visible Light 13h 05m
Length of Day
12h 03m
Waning Gibbous, 96% of the Moon is Illuminated
Mar 18
Waning Gibbous
Mar 23
Last Quarter
Mar 30
New
Apr 7
First Quarter
Apr 15
Full

Hourly Weather History & Observations

Time (MDT) Temp. Windchill Dew Point Humidity Pressure Visibility Wind Dir Wind Speed Gust Speed Precip Events Conditions
12:53 AM 28.9 °F 19.2 °F 26.1 °F 89% 29.88 in 10.0 mi NW 11.5 mph - N/A   Clear
1:53 AM 28.0 °F 20.8 °F 25.0 °F 88% 29.90 in 10.0 mi NW 6.9 mph - N/A   Clear
2:53 AM 28.9 °F 19.2 °F 26.1 °F 89% 29.91 in 10.0 mi NW 11.5 mph - N/A   Clear
3:53 AM 28.0 °F 18.1 °F 26.1 °F 92% 29.92 in 10.0 mi NW 11.5 mph - N/A   Clear
4:53 AM 27.0 °F 21.6 °F 26.1 °F 96% 29.95 in 10.0 mi WNW 4.6 mph - N/A   Clear
5:53 AM 27.0 °F 19.5 °F 26.1 °F 96% 29.97 in 10.0 mi WNW 6.9 mph - N/A   Clear
6:43 AM 28.9 °F 20.4 °F 27.0 °F 92% 29.91 in 10.0 mi NW 9.2 mph - N/A   Mostly Cloudy
6:53 AM 28.0 °F 20.0 °F 27.0 °F 96% 29.99 in 10.0 mi NW 8.1 mph - N/A   Overcast
7:43 AM 28.9 °F 21.1 °F 28.0 °F 96% 29.93 in 10.0 mi WNW 8.1 mph - N/A   Overcast
7:53 AM 30.0 °F 21.7 °F 28.0 °F 92% 30.01 in 10.0 mi NW 9.2 mph - N/A   Overcast
8:53 AM 30.9 °F 22.8 °F 28.9 °F 92% 30.03 in 10.0 mi NW 9.2 mph - N/A   Overcast
9:53 AM 36.0 °F 27.1 °F 30.0 °F 79% 30.05 in 10.0 mi NW 13.8 mph - N/A   Mostly Cloudy
10:08 AM 35.1 °F 26.4 °F 28.0 °F 76% 29.98 in 10.0 mi NNW 12.7 mph - N/A   Scattered Clouds
10:53 AM 39.0 °F 32.8 °F 28.0 °F 65% 30.06 in 10.0 mi NW 9.2 mph - N/A   Partly Cloudy
11:53 AM 41.0 °F 34.3 °F 27.0 °F 57% 30.07 in 10.0 mi NW 11.5 mph 17.3 mph N/A   Partly Cloudy
12:53 PM 44.1 °F 40.1 °F 27.0 °F 51% 30.07 in 10.0 mi West 6.9 mph 18.4 mph N/A   Scattered Clouds
1:53 PM 42.1 °F 36.1 °F 21.9 °F 45% 30.07 in 10.0 mi NW 10.4 mph - N/A   Overcast
2:53 PM 46.9 °F - 23.0 °F 39% 30.04 in 10.0 mi WNW 9.2 mph - N/A   Overcast
3:53 PM 46.0 °F - 19.0 °F 34% 30.03 in 10.0 mi Calm Calm - N/A   Overcast
4:53 PM 45.0 °F 41.8 °F 21.9 °F 40% 30.03 in 10.0 mi WNW 5.8 mph - N/A   Scattered Clouds
5:53 PM 45.0 °F 38.5 °F 25.0 °F 46% 30.03 in 10.0 mi West 13.8 mph - N/A   Partly Cloudy
6:53 PM 41.0 °F 34.3 °F 28.9 °F 62% 30.04 in 10.0 mi West 11.5 mph - N/A   Mostly Cloudy
7:08 PM 37.9 °F 28.5 °F 32.0 °F 79% 29.97 in 10.0 mi NW 17.3 mph - 0.00 in Rain Light Rain
7:53 PM 36.0 °F 29.6 °F 33.1 °F 89% 30.06 in 10.0 mi WNW 8.1 mph - 0.00 in   Overcast
8:11 PM 35.1 °F 23.8 °F 33.1 °F 92% 29.99 in 8.0 mi West 20.7 mph - 0.01 in Snow Light Snow
8:44 PM 34.0 °F 27.2 °F 33.1 °F 96% 29.97 in 10.0 mi WSW 8.1 mph - 0.02 in   Overcast
8:53 PM 35.1 °F - 33.1 °F 92% 30.05 in 10.0 mi North - - 0.02 in   Overcast
9:53 PM 32.0 °F 24.8 °F 30.9 °F 96% 30.06 in 10.0 mi WSW 8.1 mph - N/A   Mostly Cloudy
10:53 PM 32.0 °F 28.7 °F 28.9 °F 88% 30.05 in 10.0 mi West 3.5 mph - N/A   Clear
11:53 PM 30.0 °F 25.2 °F 30.0 °F 100% 30.04 in 10.0 mi West 4.6 mph - N/A   Clear